Miscellaneous Local Product
Issued by NWS North Platte, NE

Home | Current Version | Previous Version | Text Only | Print | Product List | Glossary On
Versions: 1 2 3 4 5 6 7 8 9 10 11 12 13 14 15 16 17 18 19 20 21 22 23 24 25 26 27 28 29 30 31 32 33 34 35 36 37 38 39 40 41 42 43 44 45 46 47 48 49 50
000
AXUS43 KLBF 302010
MISLBF


WESTERN AND NORTH CENTRAL NEBRASKA HOURLY WEATHER ROUNDUP
NATIONAL WEATHER SERVICE NORTH PLATTE NE
300 PM CDT SUN APR 30 2017

NOTE: "FAIR" INDICATES FEW OR NO CLOUDS BELOW 12,000 FEET WITH NO
SIGNIFICANT WEATHER AND/OR OBSTRUCTIONS TO VISIBILITY.

NOTE: STATIONS NOT REPORTING VARIABLES SUCH AS SKY/WEATHER OR
PRESSURE ARE PROVIDED BY RAWS AND APRS NETWORKS AND ARE NOT UNDER
NATIONAL WEATHER SERVICE QUALITY CONTROL.

...OBSERVATIONS IN AND NEAR THE EASTERN PANHANDLE OF NEBRASKA...

CITY           SKY/WX    TMP DP  RH WIND       PRES   REMARKS
PINE RIDGE     CLOUDY    56  20  24 N15G30    29.89F
CHADRON        SUNNY     56  28  34 N18G25    29.90F
ALLIANCE       CLOUDY    53  22  29 N28       29.85F
SIDNEY         CLOUDY    52  21  29 N28G37    29.85F
CRESCENT LAKE    N/A     52  19  27 N18G36      N/A
$$

...OBSERVATIONS IN NORTHERN NEBRASKA AND FAR SOUTHERN SOUTH DAKOTA...

CITY           SKY/WX    TMP DP  RH WIND       PRES   REMARKS
WINNER         FAIR      52  18  26 NE21G30   29.84F
VALENTINE      CLOUDY    51  19  28 N18G32    29.83F
THEDFORD       CLOUDY    46  18  32 N26G41    29.79F
AINSWORTH      CLOUDY    45  20  38 N21G31    29.81F
O`NEILL        LGT SNOW  34  32  94 N17G23    29.76F WCI  23
ORD            RAIN      34  33  96 N20G32    29.69R FOG     WCI  23
BROKEN BOW     FOG       33  33 100 N31G39    29.71R THUNDER VSB 3/4
VALENTINE NWR    N/A     46  18  32 N15G31      N/A
HALSEY           N/A     42  19  40 N13G26      N/A
BUTTE            N/A     37  31  79 N25G35      N/A  WCI  25
CHAMBERS         N/A     33  32  98 CALM        N/A
EWING            N/A     34  33  95 N12G21      N/A  WCI  25
$$

...OBSERVATIONS IN SOUTHWEST NEBRASKA AND FAR NORTHEAST COLORADO...

CITY           SKY/WX    TMP DP  RH WIND       PRES   REMARKS
HOLYOKE        FAIR      54  23  30 N28G41    29.81F
IMPERIAL       CLOUDY    45  19  35 N26G40    29.78F
OGALLALA       CLOUDY    50  21  31 N28G36    29.80F
NORTH PLATTE   LGT RAIN  40  25  55 N31G51    29.78R WCI  28
MCCOOK         HVY SNOW  33  32  96 N40G46    29.70F VSB 1/4 WCI  17
LEXINGTON      LGT SNOW  34  32  93 N24G30    29.71F VSB 3/4 WCI  21
STAPLETON        N/A     38  23  55 NE6G29      N/A  WCI  33
GOTHENBURG       N/A     32  31  98 NW13        N/A  WCI  22
CALLAWAY         N/A     32  31  96 N24         N/A  WCI  19
$$

...OBSERVATIONS IN CENTRAL LINCOLN COUNTY AREA...

CITY           SKY/WX    TMP DP  RH WIND       PRES   REMARKS
N.P. AIRPORT   LGT RAIN  40  25  55 N31G51    29.78R WCI  28
N.P. DOWNTOWN    N/A     40  26  56 N20G29      N/A  WCI  30
N.P. SOUTHEAST   N/A     39  26  58 N17G35      N/A  WCI  30
N.P. HILLCREST   N/A     40  26  57 NE30G44     N/A  WCI  28
$$

...SOME OBSERVATIONS FROM AROUND THE REGION...

CITY           SKY/WX    TMP DP  RH WIND       PRES   REMARKS
DENVER         MOSUNNY   56  23  27 N31G41    29.87F
LIMON          SUNNY     50  24  36 N37G48    29.84F
ASPEN          SUNNY     45  17  32 N15G22    30.05F
LARAMIE        SUNNY     50  13  22 NW24G32   29.96F
CASPER         SUNNY     55  23  28 NW10G17   29.97F
CHEYENNE       SUNNY     51  16  24 N32G39    29.89F
SCOTTSBLUFF    SUNNY     54  23  30 N24       29.89F
GRAND ISLAND   LGT SNOW  33  33 100 N17       29.65R FOG     WCI  22
OMAHA          LGT RAIN  44  40  85 NE8       29.61R FOG
SIOUX FALLS    LGT RAIN  42  42 100 NE29G36   29.75F FOG
PIERRE         PTSUNNY   58  23  26 NE15G24   29.87F
RAPID CITY     SUNNY     59  24  26 N13G20    29.91F
BISMARCK       SUNNY     63  24  22 SE10      29.94F
KANSAS CITY    CLOUDY    56  51  84 S13       29.49F
HILL CITY      LGT SNOW  35  34  96 N26G43    29.64S FOG     WCI  22
WICHITA        CLOUDY    44  40  85 S6        29.45R
DODGE CITY     LGT SNOW  34  33  96 N30G43    29.58R FOG     WCI  20
OKLAHOMA CITY  LGT RAIN  49  39  68 SW25G36   29.56R
DALLAS         MOSUNNY   69  32  25 W28G44    29.77S
AMARILLO       CLOUDY    42  27  55 NW33G45   29.85R
$$




USA.gov is the U.S. government's official web portal to all federal, state and local government web resources and services.